Temperature
11 11 12 12 13 14 13 13 13 14 14 14 14 13 14 15 16 16 15 14 15 15 15 16 17 18 18 19 19 20 20 19 19 18 18 16 15 15 14 14 14 13 13 13
11 11 13 12 13 14 14 14 13 14 14 14 14 13 14 13 15 15 14 14 14 15 16 16 17 17 18 19 19 19 19 19 18 18 17 16 14 14 13 13 13 13 12 12
12 13 14 13 13 13 13 13 14 13 14 14 14 13 14 15 14 13 14 14 14 15 15 15 16 16 17 18 18 18 17 17 17 16 15 14 13 13 13 13 12 12 12 12
11 12 13 14 12 13 12 13 14 14 13 12 14 12 14 14 13 11 12 13 14 14 14 14 15 15 16 15 15 15 15 15 14 14 14 13 13 13 12 12 11 11 12 12
10 11 12 13 13 13 13 14 14 14 13 12 12 13 14 13 13 12 11 13 14 14 14 14 14 14 14 14 14 14 14 13 13 13 13 13 12 12 11 12 12 12 12 11
12 12 12 13 13 13 13 13 13 11 11 12 12 13 13 12 13 12 11 13 13 13 13 13 13 13 13 13 13 13 13 13 12 12 12 12 12 12 12 12 12 12 12 11
11 11 12 13 12 13 13 13 12 13 12 12 12 12 13 14 13 13 12 13 13 13 13 13 13 13 12 12 12 12 12 12 12 12 12 12 11 11 11 11 11 11 11 11
11 9 11 13 13 11 12 13 12 12 12 11 12 12 15 13 12 13 14 15 13 13 13 13 13 12 12 12 12 12 12 12 11 11 11 11 11 10 10 10 10 10 9 9
11 11 13 14 13 13 11 12 13 13 12 11 13 14 16 12 11 10 12 13 13 13 13 13 12 12 12 12 12 11 11 11 11 11 11 11 10 10 10 10 9 9 8 7
12 11 13 13 14 13 12 13 9 13 12 12 13 12 15 15 13 10 9 11 12 13 13 12 12 12 12 11 11 11 11 11 10 10 10 10 10 9 9 8 8 7 7 7
12 11 11 12 12 13 13 12 13 12 12 12 13 14 13 13 13 10 10 12 13 13 13 12 11 11 11 11 10 10 10 10 9 9 9 9 8 8 7 7 6 6 6 6
13 10 11 12 12 12 12 12 12 12 11 10 11 13 13 11 10 11 11 12 13 13 13 12 11 10 10 10 9 9 9 9 9 8 8 8 7 6 6 6 6 6 5 5
13 11 11 11 12 11 12 11 11 10 11 11 11 13 12 10 11 12 13 14 14 13 12 10 10 9 9 9 9 9 8 8 8 8 7 7 6 5 5 5 5 5 4 4
13 11 12 11 12 12 11 11 11 12 11 11 11 14 14 12 12 12 14 14 14 13 11 10 9 8 8 8 8 8 7 7 7 7 6 5 5 5 4 4 4 4 4 4
12 12 12 11 11 12 12 11 10 11 12 12 12 11 14 13 12 12 13 12 12 11 10 9 9 8 7 7 7 7 6 6 6 5 5 4 4 4 3 3 3 3 3 3
12 11 12 11 11 12 12 12 10 11 11 12 11 11 12 11 11 12 12 12 11 11 10 9 8 7 7 6 6 6 5 5 5 4 4 4 3 3 2 2 3 2 2 2
11 11 12 11 11 12 12 11 9 11 11 11 11 11 10 10 10 11 12 13 13 12 10 9 7 6 6 5 5 5 4 4 4 4 3 3 2 2 2 2 2 1 1 1
10 10 10 10 11 12 12 10 10 9 10 10 10 9 9 10 10 11 11 12 12 11 10 8 7 6 5 5 5 4 3 3 3 3 2 2 1 1 1 1 1 1 0 -1
9 10 10 10 10 12 11 9 9 10 9 9 9 9 9 10 10 10 11 11 11 10 9 7 6 5 5 5 4 3 3 2 2 1 1 1 1 0 0 0 0 -1 -2 -2
8 9 9 8 11 12 12 11 11 11 9 8 8 8 8 8 8 8 9 9 9 9 7 6 5 5 4 3 3 2 2 1 1 1 1 0 -0 -0 -0 -1 -1 -2 -3 -3
9 8 9 9 10 10 10 10 11 11 9 7 8 8 8 7 8 8 8 7 7 6 5 5 4 3 3 2 2 2 1 1 0 0 -0 -0 -1 -1 -1 -2 -3 -3 -4 -4
8 9 8 8 10 10 9 9 9 8 7 9 9 9 8 8 8 7 7 6 6 5 4 3 3 2 2 2 1 0 -0 -0 -0 -1 -1 -1 -1 -2 -2 -3 -3 -4 -4 -5
8 8 8 8 9 8 8 9 9 9 9 8 8 8 8 8 7 7 6 6 5 4 3 3 2 2 1 1 0 -0 -1 -1 -1 -1 -1 -1 -2 -2 -3 -4 -4 -5 -5 -6
7 7 7 7 7 7 8 9 9 9 9 8 8 8 7 7 6 6 6 5 4 3 2 1 1 0 -0 -0 -1 -1 -1 -1 -1 -2 -2 -2 -3 -3 -4 -4 -5 -6 -6 -8
6 7 6 6 6 6 7 8 8 8 8 7 7 7 6 6 6 5 5 4 3 2 1 0 -0 -0 -0 -1 -1 -2 -2 -2 -2 -3 -3 -3 -3 -4 -4 -5 -6 -7 -8 -9
5 6 6 7 6 6 7 8 8 8 7 7 6 6 6 5 5 4 3 3 2 1 0 -0 -0 -1 -1 -1 -2 -2 -2 -3 -3 -3 -4 -4 -5 -5 -6 -7 -7 -8 -9 -10
Wind_Speed
12 11 14 15 13 6 7 5 7 7 4 4 10 11 17 8 5 5 6 5 6 7 5 7 9 10 9 10 10 11 13 12 7 4 3 2 2 3 3 3 5 6 6 6
13 18 15 10 8 5 4 4 5 7 2 3 9 11 13 8 5 5 9 7 5 6 7 9 10 10 10 10 13 15 14 12 9 4 3 3 3 4 4 6 8 11 11 10
15 11 16 14 9 9 6 5 4 6 8 6 7 9 8 4 1 6 7 6 4 6 7 6 8 9 10 12 12 13 13 13 12 9 6 6 6 6 6 6 7 8 10 11
11 9 16 18 13 9 8 6 4 3 4 5 5 7 9 5 3 6 7 6 6 6 5 6 7 8 9 9 9 11 12 12 12 11 10 10 7 6 5 4 5 8 10 11
8 11 14 16 14 12 5 4 4 2 2 5 1 4 8 2 5 7 8 7 6 6 6 6 7 7 8 8 8 9 11 12 11 12 11 10 8 6 4 5 8 9 9 8
4 7 10 9 7 9 6 4 3 3 2 5 6 7 8 4 7 8 7 8 8 7 6 6 7 8 8 8 8 8 11 12 11 12 12 11 10 9 10 11 10 8 7 7
4 4 4 7 7 3 5 5 0 1 2 6 2 4 10 7 6 10 13 12 9 8 7 7 8 7 8 8 7 7 10 10 9 11 12 11 10 10 10 9 9 9 9 8
8 7 7 7 8 8 7 8 7 5 5 5 2 7 7 5 5 6 10 12 10 8 7 7 8 8 8 8 8 8 10 10 10 10 10 9 8 6 6 7 7 7 6 7
9 7 4 5 6 10 6 8 5 3 1 3 6 7 8 4 5 3 11 12 11 9 8 8 8 7 8 8 8 7 9 10 9 8 7 8 8 8 7 7 6 5 6 8
9 6 3 3 6 3 7 10 4 2 3 4 5 6 5 7 3 3 9 12 10 9 8 8 7 7 7 7 7 7 9 9 7 7 7 7 7 8 7 7 8 7 7 8
7 8 5 6 8 10 6 4 4 5 3 3 3 6 5 6 5 7 8 9 10 9 9 8 8 7 7 7 7 7 8 8 7 7 7 8 9 7 6 6 6 7 7 8
6 7 6 4 2 6 7 7 8 6 5 3 2 7 3 6 3 6 7 7 9 9 8 8 8 7 7 7 7 7 7 7 6 7 7 7 5 5 6 7 7 7 7 8
8 7 8 5 4 3 4 5 6 5 4 6 6 7 3 4 4 6 7 7 8 8 8 7 7 6 6 6 6 6 6 6 6 6 6 6 6 7 7 7 8 8 9 9
6 5 8 12 9 10 7 7 8 8 6 7 9 7 4 3 3 4 3 3 5 8 9 9 7 6 6 6 5 6 6 5 5 6 7 6 6 6 7 7 8 8 8 9
6 5 5 2 4 6 7 10 12 12 12 11 9 9 4 2 3 2 2 1 4 7 9 9 8 6 6 6 5 5 5 4 5 6 6 5 6 6 7 7 7 7 8 10
5 5 5 3 3 2 2 5 10 9 8 7 5 6 2 1 2 2 2 2 4 6 8 9 8 7 6 6 5 4 3 4 5 5 4 5 6 6 7 7 9 9 9 10
5 6 5 4 2 3 5 8 11 8 6 8 9 7 6 4 5 3 3 2 2 4 7 9 8 7 7 6 5 4 3 3 2 3 5 6 6 7 8 9 9 10 10 11
6 6 4 4 3 5 4 0 6 7 2 5 8 7 6 5 3 2 3 4 6 1 7 9 8 7 6 5 4 3 2 2 4 6 6 6 6 7 8 8 8 9 8 10
3 7 5 5 5 4 2 4 8 7 3 3 7 6 4 3 3 2 3 3 4 4 8 8 8 7 6 5 4 3 2 5 5 5 6 6 6 7 8 8 9 9 9 11
5 5 5 4 4 6 3 2 4 5 3 6 7 7 5 4 2 3 3 3 3 5 6 7 7 7 7 4 3 3 3 4 4 5 6 6 6 7 8 9 8 7 9 11
4 4 4 3 3 5 3 2 4 5 5 7 7 7 6 5 4 2 2 3 4 5 7 8 8 6 5 4 3 4 4 4 5 6 6 7 7 7 8 7 7 9 10 11
7 6 5 5 4 6 3 3 5 5 5 6 6 5 5 4 3 4 6 6 7 7 6 6 6 5 4 4 4 4 4 5 5 6 6 7 7 8 8 8 9 9 9 11
3 5 5 6 5 1 1 2 5 6 6 6 5 6 5 3 1 2 3 5 6 7 6 5 6 5 4 4 5 3 4 5 5 6 7 8 9 8 8 8 10 9 9 9
2 1 3 2 3 2 3 5 5 5 5 4 3 3 3 2 1 1 2 4 5 6 5 5 6 4 3 3 2 2 4 5 6 7 8 8 8 10 7 6 8 8 9 10
4 4 4 3 3 2 2 3 5 5 6 5 4 3 3 1 0 1 3 6 7 6 6 6 5 3 1 1 3 4 5 5 6 7 8 8 7 9 9 8 7 9 8 12
5 6 6 6 8 7 6 5 5 6 5 5 3 2 2 1 1 2 3 5 6 6 6 5 4 2 1 3 5 5 6 5 6 7 7 8 8 7 8 10 10 14 16 22
Wind_Direction
182 184 193 187 189 182 159 192 229 249 259 279 282 279 282 280 248 211 163 120 83 68 35 25 23 21 23 27 31 32 33 25 43 62 63 49 13 7 10 0 350 341 328 311
184 201 196 164 168 174 163 203 253 278 253 268 295 285 280 275 261 184 161 154 131 93 55 33 29 29 28 36 40 40 36 34 37 53 64 78 77 61 43 36 36 33 33 30
196 192 186 167 163 179 197 203 238 277 330 323 322 299 298 300 111 115 135 150 139 114 106 82 56 39 36 39 39 45 39 40 37 38 51 52 49 39 26 21 23 20 30 33
204 178 181 177 179 173 225 214 225 280 329 302 12 303 289 266 181 146 151 157 157 135 126 106 87 63 52 45 44 49 49 49 42 42 57 62 59 53 24 5 9 17 22 23
190 173 180 181 187 172 204 156 197 227 228 288 281 264 280 238 205 191 183 180 187 159 138 113 96 86 70 60 56 55 61 55 48 52 55 61 61 50 26 18 20 18 14 14
188 160 169 164 165 172 152 87 40 49 41 278 231 224 272 227 212 182 185 188 193 167 144 119 99 88 77 68 62 61 69 58 50 54 52 54 52 40 33 22 18 9 7 6
183 142 167 152 134 113 134 134 262 252 240 254 258 222 259 251 226 190 182 185 189 175 162 138 115 101 95 83 73 72 75 66 57 58 54 48 46 44 38 24 15 9 6 2
160 178 188 175 163 150 181 174 181 191 219 274 266 240 258 268 273 234 170 161 168 177 174 149 129 123 115 100 84 77 75 68 59 60 57 51 48 46 39 27 18 10 358 348
165 177 175 164 129 140 177 199 185 121 281 272 260 283 294 335 4 153 153 151 170 178 172 147 128 127 114 96 84 83 82 73 64 65 67 55 45 39 29 17 14 3 353 349
160 134 156 134 106 111 181 163 156 178 222 254 278 274 262 325 327 163 162 163 168 172 163 142 135 127 106 97 89 77 77 78 71 64 60 53 41 33 23 14 7 356 344 340
137 131 153 165 183 169 163 162 147 158 185 198 278 278 241 273 266 198 182 170 168 176 169 153 141 124 109 96 80 73 69 66 59 60 58 47 32 21 9 2 354 346 336 331
147 126 143 176 202 180 176 167 157 173 201 178 197 272 287 286 271 158 155 164 180 186 168 150 140 125 106 88 75 68 67 67 63 62 57 46 26 9 4 352 342 336 332 332
153 138 130 158 207 209 193 175 152 137 150 184 189 253 321 28 99 145 159 187 193 172 149 139 131 122 106 93 81 70 64 62 64 68 60 41 20 7 355 342 337 340 337 334
119 145 162 183 189 167 183 187 172 164 187 206 221 249 315 26 146 166 169 207 191 163 152 143 137 123 111 99 88 74 62 57 61 57 45 26 6 354 343 328 325 330 328 328
128 149 150 122 148 152 174 188 186 196 199 208 217 213 230 224 212 237 312 185 156 159 151 148 143 134 123 104 87 74 61 50 54 50 35 3 344 337 328 320 322 324 329 333
128 147 135 96 80 115 189 203 192 201 189 201 180 219 193 67 75 57 22 77 147 168 163 150 140 136 124 116 107 94 74 48 48 45 15 351 341 331 325 327 333 336 332 329
145 138 137 160 159 111 247 215 187 194 197 173 197 195 143 107 110 77 25 349 255 197 161 148 142 138 137 140 143 131 90 46 34 29 12 356 336 330 332 333 332 330 330 327
131 115 115 133 142 215 241 339 160 134 153 146 120 111 120 136 115 41 22 342 324 164 147 143 142 141 143 141 133 120 81 38 21 9 351 340 332 331 328 323 321 324 322 316
86 137 125 152 191 260 247 160 145 142 161 163 128 123 107 93 63 9 17 5 313 176 149 146 146 140 132 128 126 112 54 31 12 344 322 331 336 326 319 324 325 315 311 315
44 73 112 144 180 225 223 157 151 122 205 187 148 140 131 107 107 265 349 25 56 105 118 126 125 123 125 125 118 94 43 16 345 326 323 327 319 317 325 314 303 303 309 308
97 64 108 148 221 256 214 170 135 173 201 150 142 146 149 164 191 181 115 114 119 112 114 118 120 123 132 134 104 65 21 344 328 323 322 319 323 324 302 294 298 306 308 305
164 142 157 155 207 245 171 139 171 165 125 136 146 166 174 189 170 147 155 153 142 132 129 127 123 128 125 92 66 41 346 324 325 324 322 321 315 309 309 301 299 297 299 305
181 166 177 183 207 218 71 129 126 127 136 163 173 183 169 158 129 99 133 157 159 152 142 132 130 131 117 90 66 9 321 325 328 329 323 314 309 302 296 295 301 305 304 304
233 171 130 169 200 135 99 104 123 123 128 142 132 131 140 146 109 57 139 162 160 154 152 146 144 149 129 77 41 309 314 330 334 322 311 306 304 307 299 286 289 296 300 297
181 157 148 155 162 123 227 167 144 119 99 94 79 64 63 59 349 153 172 175 172 166 161 154 147 134 105 358 336 329 329 335 322 308 301 297 294 294 301 297 288 292 286 292
197 177 170 201 184 169 185 162 127 115 100 81 68 54 54 56 215 186 186 175 165 162 150 142 137 135 332 339 327 323 329 328 312 306 304 304 306 303 305 304 302 301 307 311
Height
1479 1487 1487 1490 1493 1499 1504 1508 1509 1505 1500 1500 1498 1494 1483 1479 1481 1480 1482 1485 1484 1483 1484 1485 1485 1485 1485 1483 1482 1480 1480 1479 1480 1480 1481 1482 1483 1483 1483 1482 1482 1482 1481 1479
1481 1481 1481 1488 1494 1498 1501 1506 1508 1503 1499 1499 1495 1491 1480 1476 1476 1476 1480 1484 1485 1484 1485 1486 1486 1486 1486 1483 1481 1481 1481 1481 1482 1481 1481 1482 1482 1483 1483 1483 1482 1481 1479 1477
1471 1475 1480 1488 1495 1499 1502 1506 1506 1507 1500 1496 1496 1490 1482 1476 1476 1476 1480 1484 1486 1485 1486 1486 1486 1487 1486 1484 1483 1483 1483 1483 1483 1483 1482 1483 1484 1484 1484 1483 1482 1481 1479 1477
1475 1477 1480 1485 1492 1495 1506 1501 1502 1504 1509 1510 1504 1509 1487 1478 1478 1478 1481 1484 1486 1487 1488 1486 1486 1487 1486 1486 1487 1486 1486 1485 1485 1485 1484 1484 1484 1483 1483 1483 1483 1481 1479 1476
1474 1474 1479 1482 1487 1494 1499 1498 1501 1504 1509 1512 1506 1507 1488 1480 1480 1480 1480 1483 1486 1487 1488 1487 1486 1487 1487 1489 1489 1489 1488 1487 1487 1486 1485 1485 1485 1485 1485 1484 1482 1479 1477 1474
1469 1471 1477 1480 1485 1490 1496 1501 1505 1509 1512 1516 1505 1504 1493 1481 1475 1476 1479 1481 1485 1486 1488 1488 1487 1488 1488 1489 1491 1491 1489 1488 1488 1487 1487 1487 1486 1484 1483 1481 1479 1476 1474 1471
1470 1472 1474 1476 1486 1491 1497 1504 1517 1515 1517 1511 1504 1505 1490 1469 1468 1468 1472 1478 1484 1486 1488 1487 1487 1488 1488 1489 1490 1490 1489 1488 1489 1488 1487 1486 1485 1483 1481 1479 1476 1473 1471 1468
1472 1484 1475 1474 1478 1491 1495 1500 1510 1516 1517 1512 1504 1499 1477 1466 1465 1464 1466 1474 1482 1485 1486 1486 1486 1487 1487 1488 1489 1490 1489 1489 1489 1488 1486 1486 1485 1483 1481 1478 1475 1472 1468 1465
1470 1474 1470 1468 1471 1483 1498 1497 1494 1502 1510 1514 1497 1483 1466 1463 1463 1463 1466 1472 1479 1481 1483 1484 1485 1487 1487 1488 1489 1489 1489 1489 1488 1487 1486 1485 1484 1482 1479 1476 1473 1470 1466 1462
1457 1473 1470 1470 1473 1480 1485 1486 1506 1501 1510 1510 1495 1492 1476 1464 1463 1466 1468 1471 1476 1478 1481 1483 1485 1486 1486 1488 1489 1489 1489 1489 1488 1487 1486 1484 1482 1480 1477 1474 1470 1466 1463 1459
1449 1464 1475 1474 1476 1479 1483 1486 1487 1493 1500 1504 1501 1488 1471 1466 1463 1466 1469 1472 1474 1477 1479 1481 1483 1484 1486 1487 1488 1488 1488 1487 1487 1486 1484 1482 1480 1476 1473 1469 1466 1463 1459 1455
1444 1459 1472 1473 1471 1472 1474 1478 1483 1494 1499 1504 1503 1490 1466 1464 1462 1465 1470 1473 1475 1477 1479 1480 1481 1483 1485 1486 1486 1487 1486 1485 1484 1483 1482 1479 1476 1473 1470 1466 1462 1458 1455 1451
1441 1455 1472 1477 1479 1476 1473 1475 1478 1485 1489 1496 1498 1487 1466 1463 1463 1466 1469 1472 1474 1476 1477 1478 1480 1482 1484 1484 1485 1485 1483 1483 1482 1481 1479 1476 1473 1470 1466 1462 1458 1454 1451 1447
1436 1450 1459 1467 1462 1465 1471 1473 1475 1477 1488 1487 1486 1474 1466 1465 1466 1468 1469 1470 1471 1472 1473 1475 1478 1480 1481 1482 1482 1482 1482 1481 1480 1478 1475 1473 1469 1465 1462 1458 1455 1451 1447 1443
1438 1447 1451 1455 1455 1456 1459 1463 1469 1471 1470 1475 1471 1472 1466 1465 1466 1468 1468 1468 1468 1469 1471 1473 1476 1478 1479 1479 1480 1481 1480 1479 1477 1475 1472 1469 1466 1462 1459 1455 1451 1447 1443 1439
1436 1445 1447 1456 1456 1455 1457 1459 1465 1466 1466 1465 1468 1468 1464 1464 1465 1466 1466 1466 1465 1467 1469 1471 1474 1476 1477 1478 1478 1479 1478 1476 1474 1471 1468 1466 1463 1459 1455 1452 1447 1443 1440 1435
1436 1442 1447 1458 1457 1456 1461 1455 1458 1458 1457 1460 1463 1463 1462 1464 1465 1466 1466 1466 1466 1467 1468 1469 1472 1474 1475 1476 1476 1475 1474 1472 1470 1468 1465 1462 1459 1455 1452 1448 1444 1440 1435 1430
1437 1443 1450 1460 1460 1464 1452 1447 1448 1453 1454 1454 1456 1459 1461 1464 1465 1467 1467 1466 1466 1466 1466 1467 1469 1471 1472 1473 1473 1472 1471 1469 1467 1464 1461 1458 1455 1452 1449 1445 1441 1436 1430 1425
1433 1439 1450 1458 1458 1451 1447 1446 1446 1448 1456 1455 1456 1459 1460 1462 1465 1466 1466 1465 1465 1464 1464 1465 1468 1469 1470 1470 1470 1469 1468 1466 1463 1460 1457 1454 1451 1448 1445 1441 1437 1432 1425 1419
1436 1438 1446 1457 1453 1449 1444 1440 1439 1444 1454 1454 1455 1458 1460 1463 1468 1468 1465 1464 1463 1462 1463 1464 1466 1466 1467 1467 1467 1466 1464 1462 1459 1457 1454 1451 1448 1446 1443 1438 1433 1427 1421 1414
1442 1446 1448 1452 1450 1446 1442 1439 1440 1451 1451 1452 1453 1457 1460 1462 1464 1464 1462 1462 1462 1462 1462 1463 1463 1464 1464 1464 1463 1462 1460 1458 1456 1454 1451 1449 1447 1443 1439 1433 1428 1422 1415 1408
1437 1442 1449 1453 1451 1450 1440 1439 1444 1446 1447 1450 1453 1456 1458 1459 1460 1460 1459 1459 1460 1460 1461 1461 1461 1462 1462 1460 1459 1458 1457 1455 1453 1450 1447 1445 1443 1439 1433 1427 1421 1416 1410 1402
1431 1433 1438 1442 1443 1439 1437 1438 1441 1444 1447 1451 1454 1455 1457 1458 1458 1458 1458 1458 1458 1458 1458 1458 1458 1458 1458 1457 1456 1455 1453 1451 1448 1446 1444 1441 1438 1433 1427 1422 1416 1410 1404 1397
1432 1432 1436 1439 1440 1440 1439 1440 1443 1446 1448 1451 1453 1454 1454 1454 1455 1455 1455 1455 1455 1455 1455 1455 1455 1455 1454 1453 1452 1452 1450 1447 1445 1442 1440 1436 1431 1426 1421 1416 1411 1405 1398 1391
1430 1432 1435 1439 1441 1441 1441 1441 1443 1444 1447 1449 1450 1451 1451 1452 1452 1452 1451 1451 1451 1451 1451 1451 1451 1451 1451 1451 1450 1448 1446 1443 1441 1438 1434 1430 1424 1419 1414 1409 1404 1398 1393 1388
1426 1428 1431 1430 1430 1434 1436 1439 1441 1443 1444 1446 1448 1448 1448 1448 1448 1447 1447 1447 1447 1448 1448 1448 1448 1448 1448 1447 1446 1445 1443 1440 1437 1432 1428 1423 1417 1413 1407 1401 1395 1390 1388 1383